Location: Appeville
(49.3218°N, 1.3427°W)
Time: 10:15:39
(UTC+00:00)

Cosmos 405 - Pass Details

Date: 08 December 2019
Orbit: 451 x 467 km, 81.3° (Epoch: 27 January)

Event Time Altitude Azimuth Distance (km) Brightness Sun altitude
Exits shadow 06:22:50 - 353° (N) 2,320 6.2 -13.0°
Reaches altitude 10° 06:24:30 10° 358° (N) 1,635 5.5 -12.7°
Maximum altitude 06:28:00 51° 75° (ENE) 597 3.9 -12.2°
Drops below altitude 10° 06:31:26 10° 152° (SSE) 1,614 6.5 -11.7°
Sets 06:33:33 0° 158° (SSE) 2,481 7.4 -11.4°
